Regional Weather Roundup
Issued by NWS

Home | Current Version | Previous Version | Graphics & Text | Print | Product List | Glossary On
Versions: 1 2 3 4 5 6 7 8 9 10 11 12 13 14 15 16 17 18 19 20 21 22 23 24 25 26 27 28 29 30 31 32 33 34 35 36 37 38 39 40 41 42 43 44 45 46 47 48 49 50
000
ASUS43 KMKX 221400
RWRWI

WISCONSIN REGIONAL WEATHER ROUNDUP
NATIONAL WEATHER SERVICE MILWAUKEE/SULLIVAN WI
900 AM CDT MON SEP 22 2014

NOTE: "FAIR" INDICATES FEW OR NO CLOUDS BELOW 12,000 FEET WITH NO
SIGNIFICANT WEATHER AND/OR OBSTRUCTIONS TO VISIBILITY.

WIZ001-002-006>008-014>016-023>028-221500-
NORTHWEST WISCONSIN

CITY           SKY/WX    TMP DP  RH WIND       PRES   REMARKS
SUPERIOR ARPT  SUNNY     48  47  94 SW7       30.21R
ASHLAND        SUNNY     52  48  86 SW7       30.21R
HAYWARD        CLOUDY    45  45 100 SW3       30.24R
SIREN          FOG       48  47  97 SW3       30.24S VSB 1/2
RICE LAKE      PTSUNNY   47  46  97 CALM      30.25S
LADYSMITH      FOG       44  43  97 CALM      30.25R VSB 1/2
EAU CLAIRE     SUNNY     51  48  89 SW6       30.25R
MENOMONIE      SUNNY     49  47  94 CALM      30.25S
NEW RICHMOND   FOG       47  47 100 CALM      30.26R VSB<1/4
OSCEOLA        FOG       46  46 100 CALM      30.29S VSB 1/4
$$

WIZ003>005-009-010-017-018-221500-
NORTH CENTRAL WISCONSIN

CITY           SKY/WX    TMP DP  RH WIND       PRES   REMARKS
WOODRUFF       SUNNY     50  46  86 W3        30.20S
RHINELANDER    SUNNY     49  44  83 W7        30.21S
EAGLE RIVER    MOSUNNY   46  46 100 W5        30.20S
LAND O LAKES   PTSUNNY   46  45  94 CALM      30.20S
PHILLIPS       SUNNY     49  47  91 W3        30.21S
TOMAHAWK       SUNNY     45  44  97 CALM      30.22S
MEDFORD        SUNNY     47  44  92 CALM      30.23R
MERRILL        SUNNY     45  43  91 CALM      30.22S
$$

WIZ029-030-035-036-043>047-221500-
CENTRAL WISCONSIN

CITY           SKY/WX    TMP DP  RH WIND       PRES   REMARKS
WAUSAU         SUNNY     50  44  80 W5        30.22S
MOSINEE        SUNNY     48  46  93 W6        30.24S
MARSHFIELD     SUNNY     50  47  89 W6        30.24R
STEVENS POINT  SUNNY     46  42  86 CALM      30.25S
WAUPACA        SUNNY     51  44  76 W3        30.24S
WAUTOMA        NOT AVBL
WISC RAPIDS    SUNNY     50  45  83 W3        30.26R
CAMP DOUGLAS   NOT AVBL
$$

WIZ011>013-019>022-031-037>040-048>050-221500-
NORTHEAST WISCONSIN

CITY           SKY/WX    TMP DP  RH WIND       PRES   REMARKS
ANTIGO         SUNNY     45  42  88 W5        30.22S
STURGEON BAY   SUNNY     48  43  81 W10       30.21S
GREEN BAY      SUNNY     50  45  83 W6        30.23S
MANITOWOC      NOT AVBL
APPLETON       MOSUNNY   43  39  87 W10       30.24
CLINTONVILLE   SUNNY     48  43  81 W6        30.23S
OSHKOSH        SUNNY     50  43  77 W6        30.24S
$$

WIZ032>034-041-042-053>061-221500-
SOUTHWEST WISCONSIN

CITY           SKY/WX    TMP DP  RH WIND       PRES   REMARKS
LA CROSSE      MOSUNNY   50  48  93 S8        30.27S
SPARTA         NOT AVBL
VIROQUA        FAIR      50  50  98 SW6       30.27S
BOSCOBEL       FOG       47  46  97 SW3       30.30S VSB 1/4
PRAIRIE DU CHI CLOUDY    48  47  97 CALM      30.30R FOG
PLATTEVILLE    FAIR      49  47  92 W3        30.31R
$$

WIZ056-057-062-063-064-067-068-221500-
SOUTH CENTRAL WISCONSIN

CITY           SKY/WX    TMP DP  RH WIND       PRES   REMARKS
BARABOO/DELLS  SUNNY     49  43  78 CALM      30.27S
LONE ROCK      NOT AVBL
WATERTOWN      SUNNY     46  43  91 CALM      30.27R
MADISON        SUNNY     52  42  69 VRB3      30.27S
MIDDLETON      FAIR      51  46  82 W5        30.28S
MONROE         SUNNY     50  43  76 W5        30.28R
JANESVILLE     SUNNY     50  45  81 CALM      30.28S
$$

WIZ051-052-058>065-066-070>072-221500-
SOUTHEAST WISCONSIN

CITY           SKY/WX    TMP DP  RH WIND       PRES   REMARKS
MILWAUKEE      SUNNY     51  41  68 W6        30.27R
WAUKESHA       SUNNY     48  43  81 W8        30.28R
MILWAUKEE/TIMM SUNNY     48  41  76 W6        30.28R
RACINE         SUNNY     51  42  71 NW5       30.29R
BURLINGTON     SUNNY     46  44  95 CALM      30.27R
KENOSHA        SUNNY     50  43  77 NW6       30.28R
FOND DU LAC    SUNNY     49  43  80 SW6       30.25S
SHEBOYGAN      SUNNY     52  46  80 W7        30.24S
WEST BEND      SUNNY     48  41  76 W5        30.25S
JUNEAU         SUNNY     46  43  88 SW5       30.27S
$$

LSZ147-162-221500-
LAKE SUPERIOR

STATION/POSITION TIME  TEMP    WIND        PRES    WAVE
                       AIR SEA DIR/SP/G            HT/PER
                 (UTC) (F)     (DEG/KT/KT) (MB)    (FT/S)
W MID LAKE BUOY  1250   49 47  240/  8/ 10 1021.0R   1/ 3
DEVILS ISLAND    1300   51     250/ 14/ 16 1022.0R
PORT WING        1300   48     180/  4/  6 1022.4S
SAXON HARBOR     1340   54     210/  3/ 10 1022.7R
$$

LMZ867-665-643>646-221500-
LAKE MICHIGAN

STATION/POSITION TIME  TEMP    WIND        PRES    WAVE
                       AIR SEA DIR/SP/G            HT/PER
                 (UTC) (F)     (DEG/KT/KT) (MB)    (FT/S)
N MID LAKE BUOY  1250   49 57  260/ 10/ 14 1022.5R   1/ 3
NORTHPORT PIER   1300   52     240/  2/ 11 1022.7R
KEWAUNEE LAKESHO 1300   45     280/  5/  6 1022.2R
SHEBOYGAN LAKESH 1300   45 53  210/  4/  5 1024.6R
PORT WASHINGTON  1340   52     280/  6/  9 1024.7S
ATWATER BUOY     1300   49     270/  8/ 12 1025.3R
MILWAUKEE LAKESH 1300   48     290/  5/  7   N/A
S MID LAKE BUOY  1250   53 61  340/ 12/ 16 1024.0R   5/ 8
KENOSHA   LAKESH 1300   48     290/  7/  8 1024.4R
$$

TC  - TEMPERATURE IN CELSIUS
VSB - VISIBILITY IN STATUTE MILES
WCI - WIND CHILL INDEX
HX  - HEAT INDEX



USA.gov is the U.S. government's official web portal to all federal, state and local government web resources and services.